www.pogodaiklimat.ru

Погода и климат >> Архив погоды >> Багамские Острова >> Большая Багама


ПОГОДА в Большой Багаме

  • Прогноз погоды в Большой Багаме
  • Монитор погоды в Большой Багаме

АРХИВ ПОГОДЫ в Большой Багаме

Время (UTC), дата Ветер
(напр.,м/с)
 
Видим.   Явления Облачность Т
(С)
Тd
(С)
f
(%)
Тe
(С)
Тes
(С)
Комфортность P
(гПа)
Po
(гПа)
Тmin
(С)
Tmax
(С)
R
(мм)
R24
(мм)
S
(см)
12 17.07 ЮВ 2 15 км 4/4 300 м
[Cu Sc As op Ci sp]
+34.1 +23.8 55 +45 +47 опасность
перегрева
1020.2 1019.0
15 17.07 ЮВ 6 15 км 3/3 540 м
[Cb cap Ci ing]
+31.6 +23.2 61 +42 +47 опасность
перегрева
1021.0 1019.7
18 17.07 ЮВ 4 15 км осадки на расстоянии 5/4 540 м
[Cb cap Ac trans Ci ing]
+33.2 +24.7 61 +46 +54 опасность
перегрева
1020.4 1019.1
21 17.07 ЮВ 4 15 км осадки на расстоянии 4/3 540 м
[Cb cap Ci ing]
+31.9 +24.6 65 +45 +49 опасность
перегрева
1019.3 1018.0
00 18.07 ЮВ 3 15 км зарница 4/3 540 м
[Cb cap Ci ing]
+29.5 +24.7 75 +42 +42 опасность
перегрева
1019.3 1018.0 +26.8 +34.7
12 18.07 ЮВ 4 15 км 6/4 500 м
[Cb calv Ci sp]
+28.9 +25.0 80 +42 +43 опасность
перегрева
1019.2 1017.9 +24.5 +34.7
15 18.07 ЮВ 6 9000 м осадки на расстоянии 5/5 540 м
[Cb cap Ci ing]
+32.1 +25.2 67 +46 +50 опасность
перегрева
1019.7 1018.4
18 18.07 ЮВ 4 15 км осадки на расстоянии 5/5 540 м
[Cb cap Ci ing]
+32.9 +23.6 58 +44 +52 опасность
перегрева
1019.8 1018.5
21 18.07 ЮВ 3 15 км зарница 8/4 540 м
[Cb cap Ci ing]
+31.6 +24.1 65 +44 +48 опасность
перегрева
1018.3 1017.0
00 19.07 ЮВ 2 15 км осадки на расстоянии 8/3 540 м
[Cb cap Ac trans Ci fib]
+29.0 +24.8 78 +41 +41 опасность
перегрева
1018.4 1017.1 +28.2 +34.6
12 19.07 ЮВ 3 19 км осадки на расстоянии {ливн. осадки} 6/4 540 м
[Cb cap Ci fib]
+29.5 +25.5 79 +43 +45 опасность
перегрева
1018.7 1017.4 +24.4 +34.6 0.0
15 19.07 ЮВ 8 17 км мгла 8/5 750 м
[Cu med, cong Ci fib]
+31.2 +24.3 67 +43 +45 опасность
перегрева
1019.8 1018.5
18 19.07 ЮВ 4 17 км мгла 8/5 660 м
[Cu med, cong Ci ing]
+33.0 +25.8 66 +48 +54 опасность
перегрева
1019.5 1018.2
00 20.07 В 3 19 км осадки на расстоянии {гроза} 8/3 450 м
[Cb cap Ac trans Ci ing]
+29.4 +25.9 81 +44 +44 опасность
перегрева
1017.9 1016.6 +28.9 +34.9
12 20.07 Ю 3 19 км в посл. час ливневой дождь 8/4 450 м
[Cb cap Ci fib]
+28.6 +23.9 76 +40 +41 очень
душно
1018.7 1017.4 +24.5 +34.9 0.2
15 20.07 ЮВ 5 19 км осадки на расстоянии 9/4 450 м
[Cb cap Ac As Cs]
+31.2 +23.7 64 +42 +45 опасность
перегрева
1019.4 1018.1
18 20.07 ЮВ 5 19 км осадки на расстоянии 6/3 450 м
[Cb cap Ci fib]
+33.2 +23.5 57 +44 +51 опасность
перегрева
1018.6 1017.4
21 20.07 ЮВ 5 19 км осадки на расстоянии 9/3 450 м
[Cb cap Ci ing]
+32.0 +23.8 62 +43 +46 опасность
перегрева
1017.2 1015.9
00 21.07 В 4 19 км 9/3 450 м
[Cb cap Ac trans Ci ing]
+29.5 +24.8 76 +42 +42 опасность
перегрева
1017.2 1015.9 +28.9 +34.0
12 21.07 СВ 2 15 км в посл. час ливневой дождь 6/4 450 м
[Cb cap Ac trans Ci fib]
+26.0 +24.6 92 +37 +38 очень
душно
1018.3 1017.0 +24.0 +34.0 2
15 21.07 В 5 19 км осадки на расстоянии 6/4 450 м
[Cb cap Ac trans Ci ing]
+32.2 +24.9 65 +45 +50 опасность
перегрева
1018.7 1017.4
18 21.07 ЮВ 4 15 км осадки на расстоянии 9/4 360 м
[Cb cap Ac As Ci ing]
+31.8 +25.3 69 +46 +51 опасность
перегрева
1018.6 1017.3
21 21.07 ЮВ 4 19 км осадки на расстоянии 8/4 360 м
[Cb cap Ci ing]
+31.7 +24.0 64 +44 +46 опасность
перегрева
1016.9 1015.6
00 22.07 В 2 19 км осадки на расстоянии 5/3 360 м
[Cb cap Ac As Ci ing]
+29.4 +23.6 71 +40 +40 очень
душно
1017.6 1016.3 +25.2 +33.3
12 22.07 СВ 3 19 км осадки на расстоянии 4/4 450 м
[Cb cap Ac cuf]
+27.4 +25.2 88 +40 +41 очень
душно
1016.8 1015.5 +23.2 +33.3
15 22.07 В 6 19 км в посл. час гроза {ливн. осадки} 8/5 540 м
[Cb cap Ac trans Ci ing]
+30.2 +24.6 72 +43 +45 опасность
перегрева
1017.4 1016.1
18 22.07 В 7 11 км гроза с градом {ливн. осадки} 9/9 480 м
[Cb cap]
+27.8 +23.8 79 +38 +39 очень
душно
1016.9 1015.6 4
21 22.07 В 7 13 км {гроза} 9/4 480 м
[Cb cap As op Ci sp]
+28.0 +24.1 79 +39 +40 очень
душно
1015.5 1014.2
00 23.07 В 5 13 км {гроза} 9/3 540 м
[Cu Sc As op Ci sp]
+27.7 +24.2 81 +39 +39 очень
душно
1015.3 1014.0 +24.8 +31.4
12 23.07 Ю 6 3200 м сильн. гроза, ливневой дождь 9/6 360 м
[Cb cap]
+25.9 +24.3 91 +36 +36 очень
душно
1015.5 1014.2 +25.2 +31.4 33
15 23.07 Ю 5 15 км осадки на расстоянии {гроза, ливн. осадки} 9/4 360 м
[Cb cap Ac As Ci ing]
+29.8 +26.1 81 +45 +48 опасность
перегрева
1016.9 1015.6
18 23.07 Ю 6 19 км {гроза, ливн. осадки} 6/3 540 м
[Cb cap Ac As Ci sp]
+31.3 +25.5 71 +46 +50 опасность
перегрева
1015.6 1014.3 14
21 23.07 Ю 5 19 км 4/3 600 м
[Cb cap Ci ing]
+31.7 +25.4 69 +46 +49 опасность
перегрева
1014.6 1013.3
00 24.07 Ю 3 19 км 6/1 600 м
[Cb cap Ci sp]
+29.0 +24.9 79 +42 +42 опасность
перегрева
1015.1 1013.8 +23.5 +32.0

 

Местоположение метеостанции Большая Багама (Багамские Острова): широта 26.55 долгота -78.70 высота над уровнем моря 11 м.

В архиве по умолчанию представлена погода в Большой Багаме за последнюю неделю. Архивные данные за месяц целиком и за предыдущие месяцы, начиная с января 2011 года, Вы можете получить, выбрав интересующий диапазон дат из раскрывающегося списка и нажав кнопку "Ввод!".


*Определитесь, кто Вы:
робот инопланетянин человек

Внимание! Время в таблицах - всемирное. Для получения местного времени необходимо прибавить поправку, которая равна -4 ч.

Смотрите также архив погоды в соседних городах и на ближайших метеорологических станциях:

Погода в Нассау (Багамские Острова) (208 км)
Погода в Кайо-Коко (Куба) (448 км)
Погода в Кайбарьене (Куба) (455 км)
Погода в Ябу (Куба) (472 км)
Погода в Варадеро (Куба) (480 км)
Погода в Санкти-Спиритусе (Куба) (519 км)
Погода в Каса Бланка (Куба) (526 км)
Погода в Сьенфуэгосе (Куба) (536 км)
Погода в Гавана аэропорту (Куба) (545 км)
Погода в Хукаро (Куба) (549 км)

Пояснения к столбцам:

Ветер - указаны скорость ветра в м/с - средняя за 10 мин, порывы в срок и между сроками (в фигурных скобках) и направление, откуда дует ветер: С - северный, СВ - северо-восточный, В - восточный, ЮВ - юго-восточный, Ю - южный, ЮЗ - юго-западный, З - западный, СЗ - северо-западный.
Видимость - горизонтальная дальность видимости в метрах или километрах. При видимости от 1 до 10 км при отсутствии осадков обычно наблюдается дымка, при ухудшении видимости до 1 км и менее - туман. В сухую погоду видимость может ухудшаться дымом, пылью или мглою.
Явления - указаны атмосферные явления, наблюдавшиеся в срок или в последний час перед сроком; фигурными скобками обозначены явления, наблюдавшиеся между сроками (за 1-3 часа до срока); квадратными скобками обозначены град или гололедные отложения с указанием их диаметра в мм.
Облачность - указаны через наклонную черту общая и нижняя облачность в баллах и высота нижней границы облаков в метрах; квадратными скобками обозначены формы облаков: Ci - перистые, Cs - перисто-слоистые, Cc - перисто-кучевые, Ac - высококучевые, As - высокослоистые, Sc - слоисто-кучевые, Ns - слоисто-дождевые, Cu - кучевые, Cb - кучево-дождевые. Подробнее классификацию облаков см. в Атласе облаков (PDF).
T - Температура воздуха - температура, измеренная на высоте 2 м над землей.
Td - Температура точки росы - температура, при понижении до которой содержащийся в воздухе водяной пар достигнет насыщения.
f - Относительная влажность воздуха - влажноcть воздуха, измеренная на высоте 2 м над землей.
Te - Эффективная температура - температура, которую ощущает одетый по сезону человек в тени. Характеристика душности погоды. При расчете учитывается влияние влажности воздуха и скорости ветра на теплоощущения человека.
Tes - Эффективная температура на солнце - температура, которую ощущает человек, с поправкой на солнечный нагрев. Характеристика знойности погоды. Зависит от высоты солнца над горизонтом, облачности и скорости ветра. Ночью, в пасмурную погоду, а также при ветре 12 м/с и более поправка равна нулю.
P - Атмосферное давление - приведенное к уровню моря атмосферное давление.
Po - Атмосферное давление - измеренное на уровне метеостанции атмосферное давление.
Tmin - Минимальная температура - минимум температуры воздуха на высоте 2 м над землей.
Tmax - Максимальная температура - максимум температуры воздуха на высоте 2 м над землей.
R - Количество осадков - Количество выпавших осадков за период времени, мм. При наведении курсора мыши на число - период времени, за который выпало указанное количество осадков.
R24 - Количество осадков - Количество выпавших осадков за 24 часа, мм.
S - Снежный покров - Высота снежного покрова, см. При наведении курсора мыши на число - состояние снежного покрова и степень покрытия местности в баллах.